Plainview, TX

8:39 PM CDT on July 23, 2016 (GMT -0500)
Hale County

Weather History for KPVW - January, 2014

Change the Weather History Date:

Tuesday, January 7, 2014

  Actual Average Record
Temperature  
Mean Temperature 32 °F -  
Max Temperature 51 °F 48 °F 84 °F (2006)
Min Temperature 14 °F 22 °F -1 °F (1912)
Degree Days  
Heating Degree Days 32    
Moisture  
Dew Point 11 °F    
Average Humidity 46    
Maximum Humidity 68    
Minimum Humidity 21    
Precipitation  
Precipitation 0.00 in - - ()
Sea Level Pressure  
Sea Level Pressure 30.15 in    
Wind  
Wind Speed 10 mph (SW)    
Max Wind Speed 18 mph    
Max Gust Speed 22 mph    
Visibility 10 miles    
Events      
Averages and records for this station are not official NWS values.
T = Trace of Precipitation, MM = Missing Value Source: NWS Daily Summary

Daily Weather History Graph

Daily Weather History Graph

Search for Another Location

Airport or City:

Trip Planner

Search our weather history database for the weather conditions in past years. The results will help you decide how hot, cold, wet, or windy it might be!

Date:

Astronomy

Jan. 07, 2014 Rise Set
Actual Time 7:53 AM CST 5:53 PM CST
Civil Twilight 7:25 AM CST 6:20 PM CST
Nautical Twilight 6:54 AM CST 6:51 PM CST
Astronomical Twilight 6:24 AM CST 7:22 PM CST
Moon 12:03 PM CST (1/7) 12:09 AM CST (1/7)
Length of Visible Light 10h 54m
Length of Day
9h 59m
Waxing Crescent, 46% of the Moon is Illuminated
Jan 7
Waxing Crescent
Jan 7
First Quarter
Jan 15
Full
Jan 23
Last Quarter
Jan 30
New

Hourly Weather History & Observations

Time (CST) Temp. Windchill Dew Point Humidity Pressure Visibility Wind Dir Wind Speed Gust Speed Precip Events Conditions
12:15 AM 19.9 °F 8.6 °F 7.3 °F 58% 30.34 in 10.0 mi SW 10.4 mph - N/A   Clear
12:35 AM 19.0 °F 7.5 °F 6.4 °F 58% 30.34 in 10.0 mi WSW 10.4 mph - N/A   Clear
12:55 AM 18.1 °F 7.9 °F 5.9 °F 59% 30.33 in 10.0 mi SW 8.1 mph - N/A   Clear
1:15 AM 17.4 °F 8.0 °F 6.1 °F 61% 30.33 in 10.0 mi WSW 6.9 mph - N/A   Clear
1:35 AM 17.4 °F 7.1 °F 6.4 °F 62% 30.32 in 10.0 mi WSW 8.1 mph - N/A   Clear
1:55 AM 16.2 °F 4.7 °F 5.7 °F 64% 30.32 in 10.0 mi WSW 9.2 mph - N/A   Clear
2:15 AM 16.7 °F 5.3 °F 5.9 °F 63% 30.31 in 10.0 mi SW 9.2 mph - N/A   Clear
2:35 AM 17.4 °F 6.2 °F 5.7 °F 60% 30.31 in 10.0 mi SW 9.2 mph - N/A   Clear
2:55 AM 17.4 °F 5.4 °F 5.4 °F 59% 30.31 in 10.0 mi WSW 10.4 mph - N/A   Clear
3:15 AM 17.4 °F 7.1 °F 5.9 °F 61% 30.31 in 10.0 mi SW 8.1 mph - N/A   Clear
3:35 AM 17.4 °F 7.1 °F 5.9 °F 61% 30.31 in 10.0 mi WSW 8.1 mph - N/A   Clear
3:55 AM 15.8 °F 5.1 °F 5.2 °F 63% 30.29 in 10.0 mi WSW 8.1 mph - N/A   Clear
4:15 AM 17.4 °F 5.4 °F 6.4 °F 62% 30.29 in 10.0 mi WSW 10.4 mph - N/A   Clear
4:35 AM 17.4 °F 6.2 °F 5.9 °F 61% 30.28 in 10.0 mi West 9.2 mph - N/A   Clear
4:55 AM 17.4 °F 7.1 °F 6.4 °F 62% 30.27 in 10.0 mi West 8.1 mph - N/A   Clear
5:15 AM 16.7 °F 6.2 °F 5.9 °F 63% 30.26 in 10.0 mi WSW 8.1 mph - N/A   Clear
5:35 AM 17.4 °F 7.1 °F 6.6 °F 63% 30.26 in 10.0 mi WSW 8.1 mph - N/A   Clear
5:55 AM 16.3 °F 4.9 °F 5.9 °F 64% 30.25 in 10.0 mi WSW 9.2 mph - N/A   Clear
6:15 AM 16.2 °F 4.7 °F 5.9 °F 64% 30.25 in 10.0 mi WSW 9.2 mph - N/A   Clear
6:35 AM 17.4 °F 6.2 °F 6.4 °F 62% 30.24 in 10.0 mi WSW 9.2 mph - N/A   Clear
6:55 AM 17.4 °F 5.4 °F 6.4 °F 62% 30.24 in 10.0 mi West 10.4 mph - N/A   Clear
7:15 AM 16.2 °F 5.5 °F 5.7 °F 64% 30.23 in 10.0 mi WSW 8.1 mph - N/A   Clear
7:35 AM 14.9 °F 5.0 °F 5.0 °F 65% 30.24 in 10.0 mi WSW 6.9 mph - N/A   Clear
7:55 AM 14.9 °F 4.0 °F 5.9 °F 68% 30.24 in 10.0 mi WSW 8.1 mph - N/A   Clear
8:15 AM 14.9 °F 5.0 °F 5.9 °F 68% 30.24 in 10.0 mi WSW 6.9 mph - N/A   Clear
8:35 AM 17.4 °F 7.1 °F 7.3 °F 65% 30.24 in 10.0 mi West 8.1 mph - N/A   Clear
8:55 AM 19.9 °F 7.9 °F 7.5 °F 59% 30.24 in 10.0 mi West 11.5 mph - N/A   Clear
9:15 AM 22.5 °F 10.5 °F 7.3 °F 52% 30.24 in 10.0 mi West 12.7 mph - N/A   Clear
9:35 AM 25.5 °F 13.3 °F 7.7 °F 47% 30.25 in 10.0 mi West 15.0 mph - N/A   Clear
9:55 AM 30.0 °F 20.0 °F 10.6 °F 44% 30.24 in 10.0 mi West 12.7 mph - N/A   Clear
10:15 AM 30.2 °F 20.2 °F 9.0 °F 41% 30.23 in 10.0 mi WSW 12.7 mph - N/A   Clear
10:35 AM 34.7 °F 26.4 °F 11.8 °F 39% 30.23 in 10.0 mi WSW 11.5 mph - N/A   Clear
10:55 AM 36.7 °F 27.6 °F 12.0 °F 36% 30.22 in 10.0 mi WSW 15.0 mph - N/A   Clear
11:15 AM 39.7 °F 31.9 °F 12.7 °F 33% 30.21 in 10.0 mi WSW 13.8 mph - N/A   Clear
11:35 AM 40.3 °F 32.2 °F 11.8 °F 31% 30.20 in 10.0 mi SW 15.0 mph - N/A   Clear
11:55 AM 42.3 °F 34.4 °F 11.8 °F 29% 30.18 in 10.0 mi WSW 16.1 mph - N/A   Clear
12:15 PM 44.1 °F 37.7 °F 12.2 °F 28% 30.16 in 10.0 mi SW 12.7 mph 21.9 mph N/A   Clear
12:35 PM 44.8 °F 37.1 °F 12.7 °F 27% 30.15 in 10.0 mi WSW 18.4 mph 21.9 mph N/A   Clear
12:55 PM 45.0 °F 38.2 °F 13.1 °F 28% 30.13 in 10.0 mi SW 15.0 mph - N/A   Clear
1:15 PM 46.9 °F - 14.5 °F 27% 30.11 in 10.0 mi SW 12.7 mph - N/A   Clear
1:35 PM 47.3 °F - 13.8 °F 26% 30.09 in 10.0 mi SW 16.1 mph 19.6 mph N/A   Clear
1:55 PM 50.0 °F - 14.7 °F 25% 30.08 in 10.0 mi SW 15.0 mph 20.7 mph N/A   Clear
2:15 PM 50.0 °F - 14.4 °F 24% 30.07 in 10.0 mi SW 15.0 mph 20.7 mph N/A   Clear
2:35 PM 50.0 °F - 12.6 °F 22% 30.06 in 10.0 mi SSW 16.1 mph 21.9 mph N/A   Clear
2:55 PM 50.4 °F - 11.8 °F 21% 30.05 in 10.0 mi SW 13.8 mph - N/A   Clear
3:15 PM 50.4 °F - 12.6 °F 22% 30.04 in 10.0 mi SW 13.8 mph 21.9 mph N/A   Clear
3:35 PM 51.1 °F - 13.5 °F 22% 30.04 in 10.0 mi SW 15.0 mph - N/A   Clear
3:55 PM 51.1 °F - 13.5 °F 22% 30.03 in 10.0 mi SSW 15.0 mph 20.7 mph N/A   Clear
4:15 PM 50.0 °F - 12.2 °F 22% 30.04 in 10.0 mi SSW 15.0 mph - N/A   Clear
4:35 PM 50.0 °F - 14.0 °F 24% 30.03 in 10.0 mi SSW 12.7 mph - N/A   Clear
4:55 PM 50.0 °F - 15.6 °F 25% 30.04 in 10.0 mi SSW 13.8 mph - N/A   Clear
5:15 PM 47.8 °F - 14.7 °F 27% 30.04 in 10.0 mi SSW 10.4 mph - N/A   Clear
5:35 PM 44.8 °F 40.4 °F 14.0 °F 29% 30.03 in 10.0 mi SSW 8.1 mph - N/A   Clear
5:55 PM 42.3 °F 37.3 °F 14.0 °F 32% 30.02 in 10.0 mi South 8.1 mph - N/A   Clear
6:15 PM 39.7 °F 34.9 °F 13.5 °F 34% 30.04 in 10.0 mi SSW 6.9 mph - N/A   Clear
6:35 PM 37.6 °F 31.0 °F 12.9 °F 36% 30.03 in 10.0 mi SSW 9.2 mph - N/A   Clear
6:55 PM 37.4 °F 31.4 °F 12.4 °F 36% 30.03 in 10.0 mi South 8.1 mph - N/A   Clear
7:15 PM 34.7 °F 28.8 °F 12.0 °F 39% 30.02 in 10.0 mi South 6.9 mph - N/A   Clear
7:35 PM 33.1 °F 26.1 °F 11.3 °F 40% 30.02 in 10.0 mi South 8.1 mph - N/A   Clear
7:55 PM 34.7 °F 28.1 °F 13.6 °F 42% 30.02 in 10.0 mi South 8.1 mph - N/A   Clear
8:15 PM 34.7 °F 28.8 °F 14.9 °F 44% 30.02 in 10.0 mi South 6.9 mph - N/A   Clear
8:35 PM 34.7 °F 28.1 °F 15.8 °F 46% 30.01 in 10.0 mi South 8.1 mph - N/A   Clear
8:55 PM 34.7 °F 27.5 °F 16.2 °F 47% 30.02 in 10.0 mi SSW 9.2 mph - N/A   Clear
9:15 PM 36.0 °F 29.0 °F 17.2 °F 47% 30.00 in 10.0 mi South 9.2 mph - N/A   Clear
9:35 PM 34.9 °F 27.7 °F 16.9 °F 48% 30.01 in 10.0 mi SSW 9.2 mph - N/A   Clear
9:55 PM 34.7 °F 28.1 °F 17.6 °F 50% 30.01 in 10.0 mi SSW 8.1 mph - N/A   Clear
10:15 PM 34.7 °F 28.1 °F 18.5 °F 52% 30.01 in 10.0 mi SSW 8.1 mph - N/A   Clear
10:35 PM 34.7 °F 27.5 °F 19.0 °F 53% 30.00 in 10.0 mi SSW 9.2 mph - N/A   Clear
10:55 PM 34.7 °F 26.9 °F 18.3 °F 51% 29.99 in 10.0 mi SSW 10.4 mph - N/A   Clear
11:15 PM 34.7 °F 26.4 °F 17.4 °F 49% 30.00 in 10.0 mi SSW 11.5 mph - N/A   Clear
11:35 PM 34.7 °F 25.9 °F 17.6 °F 50% 29.99 in 10.0 mi SSW 12.7 mph 19.6 mph N/A   Clear
11:55 PM 34.7 °F 26.4 °F 18.5 °F 52% 29.98 in 10.0 mi SSW 11.5 mph 17.3 mph N/A   Clear